Погода в Рапла

Эстония     59°00′06″N   24°47′56″E
темп.,
°C
ветер,
м/с
пор.,
м/с
влажн.,
%
обл.,
%
осадки,
мм/ч
давл.,
гПа
погр.,
м
7 марта, вс
вс723:000сз61297100 3.3 996936
02:00−3зсз5166498 3.9 9972084
05:00−5з3145833 0.0 9951343
08:00−4зсз5145465 0.3 9942093
11:00−2зсз8145783 0.1 9951656
14:00−2зсз7138291 0.4 9961271
17:00−3сз51089100 0.8 997911
20:00−4ссз51082100 1.5 9991058
8 марта, пн
пн823:00−5с4118270 0.6 1003736
02:00−6ссз5109249 0.7 1007764
05:00−7с4888100 0.3 1009843
08:00−8с388798 0.3 1012724
11:00−5с4772100 0.1 1015763
14:00−4с466477 0.1 1016791
17:00−5с36640 0.0 1017793
20:00−8зюз11750 0.0 101821
9 марта, вт
вт923:00−8юз127695 0.0 101923
02:00−8ююз128382 0.0 101922
05:00−6ююз2584100 0.0 1017201
08:00−5ююз41078100 0.0 1016475
11:000зюз51065100 0.0 10151365
14:00+1з51066100 0.3 10151339
17:00−1зсз3694100 2.1 1015536
20:00−3сз1198100 2.8 101622
10 марта, ср
ср1023:00−8всв51091100 1.1 1018485
02:00−11всв51089100 1.3 1020504
05:00−13всв41090100 0.0 1021379
08:00−14всв498785 0.0 1023304
11:00−9всв497517 0.0 1023440
14:00−6всв47709 0.0 1024652
17:00−7всв37790 0.0 1023615
20:00−11в288917 0.0 1024264
11 марта, чт
чт1123:00−12вюв39830 0.0 1023319
02:00−13вюв37910 0.0 1022242
05:00−13вюв389350 0.0 1020262
08:00−13юв499271 0.0 1017307
11:00−7ююв51081100 0.0 1013479
14:00−3ююв61171100 0.0 1010901
17:00−2ююв61370100 0.0 1005936
20:00−2ююв71670100 0.0 10001080